Location: Dominion City
(49.1330°N, 97.1500°W)
Time: 12:18:53
(UTC-06:00)

Daily predictions for brighter satellites

Satellite Brightness Start Highest point End
(mag) Time Altitude Azimuth Time Altitude Azimuth Time Altitude Azimuth
Meteor 1-27 Rocket 3.9 16:56:15 10° S 17:02:01 64° E 17:07:41 10° NNE
CZ-4 R/B 1.9 17:00:43 10° SE 17:04:36 39° ENE 17:08:29 10° N
SL-16 R/B 3.6 17:01:30 10° N 17:07:20 45° WNW 17:13:09 10° SW
USA 234 3.8 17:02:04 10° ENE 17:08:24 49° SE 17:14:41 10° SSW
Cosmos 1975 4.4 17:08:33 10° NNE 17:11:03 15° ENE 17:13:31 10° ESE
Okean 3 3.8 17:07:43 10° SSE 17:11:51 49° E 17:15:59 10° NNE
Okean 1 Rocket 3.1 17:07:40 10° N 17:12:03 86° W 17:16:23 10° S
APEX 4.4 17:10:24 10° SSW 17:16:46 59° ESE 17:21:49 10° NE
IDEFIX/ARIANE 42P 2.8 17:12:08 10° SE 17:17:05 47° ENE 17:22:03 10° N
Cosmos 1544 Rocket 4.3 17:13:21 10° N 17:17:24 33° ENE 17:21:26 10° SE
Ariane Rocket 3.8 17:12:32 10° S 17:17:32 58° WSW 17:22:33 10° NNW
COSMO-SKYMED 1 4.5 17:16:28 10° ENE 17:18:08 12° E 17:19:47 10° ESE
Cosmos 1782 4.1 17:14:36 10° SSW 17:18:26 42° WNW 17:22:18 10° N
Cosmos 2278 Rocket 3.8 17:16:20 10° SE 17:19:38 16° E 17:22:56 10° ENE
COSMOS 2406 3.3 17:13:56 10° NNW 17:19:41 90° SSW 17:25:26 10° SSE
MTI 4.0 17:16:27 10° N 17:19:48 75° WNW 17:23:05 10° SSW
Cosmos 2154 Rocket 4.2 17:14:33 10° N 17:20:48 82° W 17:27:02 10° S
MOS 1 4.3 17:15:55 10° SE 17:21:28 59° ENE 17:27:01 10° N
Cosmos 494 Rocket 4.4 17:18:51 10° NNW 17:23:49 41° ENE 17:28:46 10° SE
Cosmos 1975 Rocket 3.3 17:21:02 10° SSE 17:25:10 47° E 17:29:20 10° NNE
ASTEX 1 3.9 17:21:21 10° N 17:26:19 65° W 17:31:16 10° SSW
ATLAS 2AS CENTAUR R/B 3.1 17:18:42 10° NW 17:26:54 76° NE 17:34:39 10° SE
Cosmos 1125 Rocket 3.5 17:23:03 10° SSW 17:28:21 78° ESE 17:33:41 10° NNE
ISS -1.8 17:26:49 10° SSW 17:29:34 25° SE 17:32:01 12° E
Meteor 1-5 Rocket 4.1 17:24:51 10° N 17:30:15 72° ENE 17:35:46 10° SSE
Thor Agena Rocket 4.0 17:27:02 10° NNE 17:31:59 43° E 17:36:57 10° S
ERBS 3.9 17:30:17 10° WNW 17:33:10 24° NNW 17:35:37 12° NE
Genesis I 4.1 17:29:54 10° NNW 17:33:25 29° NE 17:36:53 10° E
Cosmos 2082 Rocket 3.1 17:34:53 10° NNW 17:39:41 28° NE 17:44:30 10° ESE
Cosmos 1484 Rocket 3.6 17:37:20 10° SE 17:40:33 27° ENE 17:43:45 10° N
Cosmos 1833 Rocket 3.7 17:38:45 10° NNW 17:43:27 26° NE 17:47:38 12° E
CZ-2C R/B 3.9 17:39:26 10° N 17:43:51 72° WNW 17:48:18 10° SSW
Cosmos 2251 Rocket 3.5 17:38:42 10° NNW 17:44:05 66° ENE 17:49:23 10° SSE
YAOGAN 1 2.5 17:45:19 10° SSE 17:49:39 80° ENE 17:54:00 10° NNW
AQUARIUS 4.1 17:45:09 10° SSE 17:49:39 86° ENE 17:54:11 10° NNW
SL-27 R/B 2.5 17:48:21 10° NNW 17:52:04 89° WSW 17:55:43 10° SSE
Cosmos 1500 4.0 17:50:41 10° N 17:54:03 29° ENE 17:57:27 10° SE
SJ-7 4.4 17:50:43 10° SSE 17:54:57 85° ENE 17:59:14 10° NNW
SL-8 Rocket 4.0 17:51:05 10° N 17:57:18 90° ENE 18:03:28 10° S
Cosmos 1378 Rocket 4.4 17:54:19 10° SSW 17:58:30 50° WNW 18:02:44 10° N
CZ-2C R/B 2.7 17:55:41 10° S 18:00:41 77° WSW 18:05:51 10° NNW
Cosmos 1238 Rocket 2.5 17:58:01 10° SSE 18:00:49 40° E 18:02:03 26° NE
MONITOR-E 4.3 17:57:55 10° SSE 18:01:03 53° ENE 18:04:12 10° N
BREEZE M DEB (TANK) 4.5 17:56:10 10° SSW 18:01:46 19° SSE 18:04:05 13° ESE
CRYOSAT 2 4.4 17:58:05 10° N 18:03:02 90° W 18:07:56 10° S
Meteor 2-19 Rocket 4.4 17:57:08 10° N 18:03:14 90° WSW 18:09:17 10° S
CZ-4 R/B 4.4 18:00:09 10° SSE 18:04:18 86° ENE 18:08:29 10° NNW
Cosmos 2263 Rocket 3.6 18:01:32 10° WSW 18:06:38 34° NW 18:11:48 10° NNE
SKYMED 2 4.2 18:04:28 21° NE 18:06:43 33° E 18:10:39 10° SSE
Cosmos 1455 Rocket 2.9 18:02:44 10° N 18:07:08 78° ENE 18:11:34 10° SSE
SMAP 3.5 18:02:41 10° S 18:07:18 66° WSW 18:11:58 10° NNW
Resurs 01 Rocket 3.8 18:10:01 11° NNE 18:10:01 11° NNE 18:10:19 10° NNE
Cosmos 375 4.4 18:02:41 10° NW 18:07:37 77° NE 18:11:35 10° SE
Cosmos 2366 rocket 4.0 18:01:34 10° N 18:07:59 82° E 18:14:19 10° S
Abrixas 2.4 18:05:41 10° W 18:08:38 78° S 18:09:40 37° ESE
Okean 1 3.8 18:05:20 10° SSE 18:09:06 38° E 18:11:02 23° NE
ATLAS CENTAUR R/B 3.8 18:08:28 10° NW 18:10:53 14° NNW 18:13:16 10° NNE
Cosmos 2218 Rocket 4.1 18:04:56 10° N 18:11:18 86° W 18:17:31 10° S
COSMOS 2441 4.3 18:09:15 10° SSE 18:14:07 81° ENE 18:19:03 10° NNW
Cosmos 2181 Rocket 4.5 18:10:37 10° SSW 18:16:56 65° WNW 18:23:23 10° N
Meteor 1-18 Rocket 4.2 18:12:28 10° S 18:18:02 67° E 18:23:47 10° NNE
Cosmos 1812 2.6 18:17:17 10° S 18:21:08 71° E 18:23:46 20° NNE
Timation 2 Rocket 4.2 18:16:20 10° NNW 18:23:03 60° NE 18:29:51 10° SE
GEOS 3 Rocket 3.6 18:19:37 10° SE 18:24:45 86° SW 18:29:55 10° NW
Cosmos 1809 Rocket 4.4 18:20:00 10° N 18:26:10 66° ENE 18:32:15 10° SSE
Cosmos 1346 Rocket 3.4 18:23:50 10° SSE 18:26:53 35° ESE 18:26:53 35° ESE
Cosmos 1844 Rocket 2.8 18:26:31 10° SSW 18:32:07 76° WNW 18:36:25 18° NNE
ALOS 4.4 18:39:57 12° N 18:39:57 12° N 18:40:28 10° N
CZ-3B DEB 2.6 18:34:35 10° SW 18:38:54 66° SE 18:43:53 29° ENE
COSMOS 2487 2.3 18:35:54 10° NNW 18:39:31 77° ENE 18:39:54 66° SE
CZ-4 R/B 4.0 18:36:25 10° SSW 18:39:46 23° W 18:43:08 10° NW
MSX 4.5 18:34:50 10° S 18:40:30 57° W 18:46:11 10° NNW
Cosmos 1821 Rocket 4.0 18:37:09 10° N 18:43:06 51° ENE 18:49:01 10° SSE
Cosmos 1844 3.7 18:40:16 10° SSW 18:45:50 79° WNW 18:49:11 25° NNE
Spot 2 Rocket 4.1 18:47:46 36° NE 18:47:46 36° NE 18:51:28 10° N
Cosmos 2297 4.2 18:42:31 10° S 18:47:19 37° ESE 18:47:19 37° ESE
Cosmos 1975 3.4 18:43:57 10° NNW 18:47:59 58° W 18:51:57 10° S
USA 234 3.4 18:48:21 32° NE 18:51:38 71° NNW 18:58:07 10° WSW
COSMO-SKYMED 1 2.5 18:53:03 34° N 18:54:54 83° WNW 18:59:15 10° SSW
NOSS 3-4 (A) 3.8 18:55:47 10° NW 19:02:36 61° NE 19:04:34 46° E
NOSS 3-4 (C) 3.8 18:55:53 10° NW 19:02:42 61° NE 19:04:38 46° E
Cosmos 2278 Rocket 2.1 18:57:14 10° SSW 19:02:53 90° SE 19:04:53 43° NNE
BREEZE M DEB (TANK) 3.3 18:59:57 10° W 19:03:26 77° SSW 19:06:13 38° ESE
ISS -1.9 19:02:30 10° WSW 19:04:42 38° WSW 19:04:42 38° WSW
Meteor 1-19 Rocket 4.2 19:00:19 10° S 19:06:00 61° E 19:06:35 58° ENE
FengYun 1-2 T 4.2 19:06:30 59° ENE 19:06:38 59° ENE 19:12:12 10° N
Nadezhda 3 Rocket 3.9 19:03:15 10° S 19:09:27 88° E 19:15:47 10° N
Genesis I 4.3 19:07:29 10° NW 19:11:14 43° WSW 19:11:58 38° SSW
NOSS 3-3 (A) 3.9 19:06:30 10° SW 19:12:45 79° SE 19:14:23 54° NE
NOSS 3-3 (C) 3.9 19:06:37 10° SSW 19:12:51 79° SE 19:14:27 54° NE
Meteor 1-13 Rocket 4.2 19:16:28 10° SSW 19:22:09 86° W 19:24:13 42° N
Cosmos 2082 Rocket 2.5 19:18:38 10° NNW 19:24:16 67° WSW 19:27:09 29° S
Cosmos 1833 Rocket 2.8 19:22:19 10° NNW 19:27:57 72° WSW 19:29:25 50° S
Resurs 01 Rocket 4.3 19:47:36 11° NNW 19:47:36 11° NNW 19:47:51 10° NNW
FALCON 9 R/B 4.1 19:35:26 10° WSW 19:49:09 30° SSW 19:51:03 27° S
USA 234 4.2 20:35:41 40° NW 20:35:41 40° NW 20:40:21 10° WNW
Cosmos 2278 Rocket 4.4 20:43:27 10° W 20:46:46 21° NW 20:46:46 21° NW
CZ-3B DEB 4.0 21:07:44 10° W 21:12:39 54° NW 21:12:39 54° NW
